Regional Weather Roundup
Issued by NWS

Home | Current Version | Previous Version | Text Only | Print | Product List | Glossary On
Versions: 1 2 3 4 5 6 7 8 9 10 11 12 13 14 15 16 17 18 19 20 21 22 23 24 25 26 27 28 29 30 31 32 33 34 35 36 37 38 39 40 41 42 43 44 45 46 47 48 49 50
000
ASUS43 KFSD 261010
RWRSD

WEATHER ROUNDUP FOR SOUTH DAKOTA
NATIONAL WEATHER SERVICE SIOUX FALLS SD
500 AM CDT MON JUN 26 2017

NOTE: "FAIR" INDICATES FEW OR NO CLOUDS BELOW 12,000 FEET WITH NO
SIGNIFICANT WEATHER AND/OR OBSTRUCTIONS TO VISIBILITY.


SDZ001>005-009-010-012>017-261100-
NORTHWEST AND NORTH CENTRAL SOUTH DAKOTA

CITY           SKY/WX    TMP DP  RH WIND       PRES   REMARKS
BUFFALO          N/A     48  39  71 E7        30.17F
FAITH            N/A     46  42  86 SE9G24    30.24S
MOBRIDGE       CLEAR     45  40  82 NE6       30.22S
$$

SDZ012>016-024>037-041>051-057-063-072>074-261100-
SOUTHWEST AND SOUTH CENTRAL SOUTH DAKOTA

CITY           SKY/WX    TMP DP  RH WIND       PRES   REMARKS
RAPID CTY ARPT CLEAR     44  36  73 CALM      30.25F
PIERRE         CLEAR     45  42  89 NE7       30.22R
CUSTER         CLEAR     40  32  73 N5        30.31F
ELLSWORTH AFB  CLEAR     50  38  63 SW5       30.25S
PHILIP         CLEAR     42  40  92 W6        30.23S
PINE RIDGE     CLEAR     45  40  82 NE7       30.24S
SPEARFISH      FAIR      50  37  62 SW3       30.24S
WINNER         FAIR      49  44  83 E5        30.21S
$$

SDZ004>011-016>023-039-040-261100-
NORTHEAST SOUTH DAKOTA

CITY           SKY/WX    TMP DP  RH WIND       PRES   REMARKS
ABERDEEN       CLEAR     42  42 100 N5        30.23S
WATERTOWN      CLEAR     44  42  93 N3        30.21S
BROOKINGS      CLEAR     47  46  97 CALM      30.21S
SISSETON         N/A     42  39  89 W3        30.21S
$$

SDZ017-020-022-023-036>040-048>070-261100-
SOUTHEAST SOUTH DAKOTA

CITY           SKY/WX    TMP DP  RH WIND       PRES   REMARKS
SIOUX FALLS    PTCLDY    52  52 100 CALM      30.19R
HURON          CLEAR     45  45 100 N3        30.21S
CHAMBERLAIN    CLEAR     49  46  89 CALM      30.22R
MITCHELL       CLEAR     51  49  92 NW3       30.21R
YANKTON        PTCLDY    54  50  86 SE6       30.19F
$$

ABBREVIATIONS USED IN REMARKS
   TC - TEMPERATURE IN CELSIUS
  WCI - WIND CHILL INDEX
   HX - HEAT INDEX
  VSB - VISIBILITY





USA.gov is the U.S. government's official web portal to all federal, state and local government web resources and services.